timestamp,wind_dir_avg,wind_spd_avg,wind_spd_max_dir,wind_spd_gust,battery_voltage,lat,long
2021-07-06 00:04:01+00:00,213.0,8.16,211.0,9.76,12.97,47.59359,-54.27349
2021-07-06 00:14:01+00:00,212.0,8.41,215.0,9.49,12.65,47.59359,-54.27349
2021-07-06 00:24:01+00:00,214.0,8.38,211.0,9.27,12.65,47.59359,-54.27349
2021-07-06 00:34:01+00:00,213.0,8.7,207.0,9.82,12.65,47.59359,-54.27349
2021-07-06 00:44:01+00:00,219.0,7.73,218.0,8.82,12.65,47.59359,-54.27349
2021-07-06 00:54:01+00:00,216.0,8.05,220.0,8.95,12.65,47.59359,-54.27349
2021-07-06 01:04:01+00:00,223.0,6.83,226.0,7.62,12.65,47.59359,-54.27349
2021-07-06 01:14:01+00:00,214.0,7.66,212.0,8.54,12.65,47.59359,-54.27349
2021-07-06 01:24:01+00:00,216.0,6.91,215.0,8.25,12.65,47.59359,-54.27349
2021-07-06 01:34:01+00:00,216.0,7.04,218.0,8.26,12.65,47.59359,-54.27349
2021-07-06 01:44:01+00:00,213.0,7.59,213.0,8.33,12.65,47.59359,-54.27349
2021-07-06 01:54:01+00:00,215.0,7.4,213.0,8.29,12.65,47.59359,-54.27349
2021-07-06 02:04:01+00:00,216.0,7.27,216.0,7.99,12.65,47.59359,-54.27349
2021-07-06 02:14:01+00:00,218.0,5.94,231.0,7.24,12.57,47.59359,-54.27349
2021-07-06 02:24:01+00:00,217.0,6.37,217.0,7.0,12.57,47.59359,-54.27349
2021-07-06 02:34:01+00:00,215.0,6.01,216.0,7.21,12.57,47.59359,-54.27349
2021-07-06 02:44:01+00:00,221.0,6.45,231.0,7.7,12.57,47.59359,-54.27349
2021-07-06 02:54:01+00:00,223.0,6.01,218.0,6.81,12.57,47.59359,-54.27349
2021-07-06 03:04:01+00:00,228.0,6.02,228.0,7.41,12.57,47.59359,-54.27349
2021-07-06 03:14:01+00:00,234.0,5.6,233.0,6.61,12.57,47.59359,-54.27349
2021-07-06 03:24:01+00:00,230.0,5.78,235.0,6.69,12.57,47.59359,-54.27349
2021-07-06 03:34:01+00:00,228.0,5.69,219.0,7.18,12.57,47.59359,-54.27349
2021-07-06 03:44:01+00:00,230.0,5.36,236.0,6.41,12.57,47.59359,-54.27349
2021-07-06 03:54:01+00:00,234.0,5.18,228.0,5.66,12.57,47.59359,-54.27349
2021-07-06 04:04:01+00:00,232.0,5.27,233.0,6.28,12.57,47.59359,-54.27349
2021-07-06 04:14:01+00:00,235.0,4.55,238.0,5.29,12.57,47.59359,-54.27349
2021-07-06 04:24:01+00:00,241.0,5.29,244.0,5.98,12.57,47.59359,-54.27349
2021-07-06 04:34:01+00:00,238.0,5.73,240.0,6.28,12.57,47.59359,-54.27349
2021-07-06 04:44:01+00:00,236.0,4.96,238.0,5.5,12.57,47.59359,-54.27349
2021-07-06 04:54:01+00:00,247.0,4.37,247.0,4.77,12.57,47.59359,-54.27349
2021-07-06 05:04:01+00:00,262.0,5.06,268.0,5.72,12.57,47.59359,-54.27349
2021-07-06 05:14:01+00:00,265.0,4.9,264.0,5.71,12.57,47.59359,-54.27349
2021-07-06 05:24:01+00:00,259.0,4.55,265.0,4.96,12.57,47.59359,-54.27349
2021-07-06 05:34:01+00:00,258.0,4.29,252.0,4.97,12.57,47.59359,-54.27349
2021-07-06 05:44:01+00:00,266.0,4.66,272.0,5.34,12.57,47.59359,-54.27349
2021-07-06 05:54:01+00:00,278.0,4.33,278.0,5.61,12.57,47.59359,-54.27349
2021-07-06 06:04:01+00:00,266.0,5.16,274.0,5.97,12.57,47.59359,-54.27349
2021-07-06 06:14:00+00:00,259.0,4.24,263.0,4.83,12.49,47.59359,-54.27349
2021-07-06 06:24:00+00:00,260.0,4.19,263.0,4.67,12.49,47.59359,-54.27349
2021-07-06 06:34:00+00:00,263.0,4.76,259.0,5.2,12.49,47.59359,-54.27349
2021-07-06 06:44:00+00:00,256.0,4.34,257.0,4.68,12.49,47.59359,-54.27349
2021-07-06 06:54:00+00:00,251.0,4.3,247.0,4.78,12.49,47.59359,-54.27349
2021-07-06 07:04:00+00:00,261.0,4.59,265.0,5.02,12.49,47.59359,-54.27349
2021-07-06 07:14:00+00:00,265.0,5.33,266.0,6.02,12.49,47.59359,-54.27349
2021-07-06 07:24:00+00:00,268.0,5.32,271.0,6.0,12.49,47.59359,-54.27349
2021-07-06 07:34:00+00:00,278.0,6.54,280.0,7.84,12.49,47.59359,-54.27349
2021-07-06 07:44:00+00:00,279.0,6.44,282.0,7.26,12.49,47.59359,-54.27349
2021-07-06 07:54:00+00:00,277.0,5.49,274.0,7.04,12.49,47.59359,-54.27349
2021-07-06 08:04:00+00:00,273.0,6.0,273.0,6.55,12.49,47.59359,-54.27349
2021-07-06 08:14:00+00:00,269.0,4.23,268.0,4.85,12.41,47.59359,-54.27349
2021-07-06 08:24:00+00:00,251.0,5.04,252.0,5.5,12.41,47.59359,-54.27349
2021-07-06 08:34:00+00:00,244.0,4.95,250.0,6.12,12.41,47.59359,-54.27349
2021-07-06 08:44:00+00:00,256.0,5.14,255.0,5.63,12.41,47.59359,-54.27349
2021-07-06 08:54:00+00:00,262.0,6.05,262.0,6.63,12.41,47.59359,-54.27349
2021-07-06 09:04:00+00:00,263.0,6.77,263.0,7.43,12.41,47.59359,-54.27349
2021-07-06 09:14:01+00:00,264.0,8.41,266.0,9.2,12.49,47.59359,-54.27349
2021-07-06 09:24:01+00:00,264.0,7.84,269.0,8.61,12.49,47.59359,-54.27349
2021-07-06 09:34:01+00:00,250.0,7.78,246.0,8.18,12.49,47.59359,-54.27349
2021-07-06 09:44:01+00:00,255.0,8.1,257.0,9.79,12.49,47.59359,-54.27349
2021-07-06 09:54:01+00:00,252.0,8.15,254.0,9.49,12.49,47.59359,-54.27349
2021-07-06 10:04:01+00:00,253.0,7.09,251.0,8.47,12.49,47.59359,-54.27349
2021-07-06 10:14:01+00:00,256.0,8.0,256.0,8.71,13.44,47.59359,-54.27349
2021-07-06 10:24:01+00:00,252.0,7.07,251.0,8.15,13.44,47.59359,-54.27349
2021-07-06 10:34:01+00:00,248.0,7.66,252.0,8.84,13.44,47.59359,-54.27349
2021-07-06 10:44:01+00:00,248.0,6.57,255.0,7.21,13.44,47.59359,-54.27349
2021-07-06 10:54:01+00:00,254.0,5.53,257.0,6.48,13.44,47.59359,-54.27349
2021-07-06 11:04:01+00:00,260.0,6.32,264.0,6.94,13.44,47.59359,-54.27349
2021-07-06 11:14:01+00:00,251.0,5.42,254.0,6.85,13.29,47.59359,-54.27349
2021-07-06 11:24:01+00:00,252.0,5.41,255.0,6.2,13.29,47.59359,-54.27349
2021-07-06 11:34:01+00:00,251.0,5.51,249.0,6.16,13.29,47.59359,-54.27349
2021-07-06 11:44:01+00:00,244.0,6.23,254.0,7.26,13.29,47.59359,-54.27349
2021-07-06 11:54:01+00:00,252.0,5.66,259.0,6.4,13.29,47.59359,-54.27349
2021-07-06 12:04:01+00:00,254.0,6.31,252.0,7.25,13.29,47.59359,-54.27349
2021-07-06 12:14:01+00:00,256.0,7.46,259.0,8.58,13.92,47.59359,-54.27349
2021-07-06 12:24:01+00:00,260.0,6.65,253.0,7.8,13.92,47.59359,-54.27349
2021-07-06 12:34:01+00:00,244.0,5.72,242.0,6.33,13.92,47.59359,-54.27349
2021-07-06 12:44:01+00:00,234.0,5.05,236.0,5.57,13.92,47.59359,-54.27349
2021-07-06 12:54:01+00:00,221.0,4.66,208.0,6.29,13.92,47.59359,-54.27349
2021-07-06 13:04:01+00:00,231.0,5.29,230.0,5.8,13.92,47.59359,-54.27349
2021-07-06 13:14:01+00:00,217.0,5.93,218.0,7.0,14.32,47.59359,-54.27349
2021-07-06 13:24:01+00:00,207.0,7.41,205.0,8.45,14.32,47.59359,-54.27349
2021-07-06 13:34:01+00:00,207.0,8.44,205.0,8.97,14.32,47.59359,-54.27349
2021-07-06 13:44:01+00:00,209.0,7.62,207.0,9.44,14.32,47.59359,-54.27349
2021-07-06 13:54:01+00:00,189.0,3.69,209.0,5.79,14.32,47.59359,-54.27349
2021-07-06 14:04:01+00:00,273.0,6.2,279.0,6.66,14.32,47.59359,-54.27349
2021-07-06 14:14:01+00:00,280.0,6.98,280.0,8.51,13.84,47.59359,-54.27349
2021-07-06 14:24:01+00:00,262.0,5.26,267.0,6.05,13.84,47.59359,-54.27349
2021-07-06 14:34:01+00:00,257.0,6.16,260.0,6.8,13.84,47.59359,-54.27349
2021-07-06 14:44:01+00:00,253.0,4.81,252.0,5.05,13.84,47.59359,-54.27349
2021-07-06 14:54:01+00:00,216.0,4.96,224.0,5.81,13.84,47.59359,-54.27349
2021-07-06 15:04:01+00:00,166.0,6.2,162.0,7.24,13.84,47.59359,-54.27349
2021-07-06 15:14:01+00:00,197.0,5.8,207.0,7.08,14.24,47.59359,-54.27349
2021-07-06 15:24:01+00:00,232.0,7.36,236.0,8.38,14.24,47.59359,-54.27349
2021-07-06 15:34:01+00:00,238.0,7.62,236.0,8.7,14.24,47.59359,-54.27349
2021-07-06 15:44:01+00:00,234.0,8.18,233.0,9.14,14.24,47.59359,-54.27349
2021-07-06 15:54:01+00:00,229.0,9.06,223.0,9.98,14.24,47.59359,-54.27349
2021-07-06 16:04:01+00:00,223.0,9.18,219.0,10.49,14.24,47.59359,-54.27349
2021-07-06 16:14:01+00:00,238.0,10.2,242.0,11.93,14.24,47.59359,-54.27349
2021-07-06 16:24:01+00:00,243.0,11.06,241.0,11.89,14.24,47.59359,-54.27349
2021-07-06 16:34:01+00:00,229.0,9.0,236.0,11.26,14.24,47.59359,-54.27349
2021-07-06 16:44:01+00:00,223.0,9.67,229.0,10.75,14.24,47.59359,-54.27349
2021-07-06 16:54:01+00:00,220.0,10.16,216.0,11.05,14.24,47.59359,-54.27349
2021-07-06 17:04:01+00:00,218.0,8.34,221.0,9.97,14.24,47.59359,-54.27349
2021-07-06 17:14:01+00:00,217.0,7.71,217.0,8.54,14.32,47.59359,-54.27349
2021-07-06 17:24:01+00:00,215.0,7.47,214.0,9.63,14.32,47.59359,-54.27349
2021-07-06 17:34:01+00:00,209.0,9.33,208.0,10.01,14.32,47.59359,-54.27349
2021-07-06 17:44:01+00:00,203.0,7.89,198.0,8.78,14.32,47.59359,-54.27349
2021-07-06 17:54:01+00:00,198.0,7.81,202.0,8.59,14.32,47.59359,-54.27349
2021-07-06 18:04:01+00:00,202.0,8.64,203.0,9.59,14.32,47.59359,-54.27349
2021-07-06 18:14:01+00:00,192.0,8.16,201.0,9.23,13.76,47.59359,-54.27349
2021-07-06 18:24:01+00:00,194.0,8.32,200.0,9.59,13.76,47.59359,-54.27349
2021-07-06 18:34:01+00:00,203.0,10.1,206.0,11.11,13.76,47.59359,-54.27349
2021-07-06 18:44:01+00:00,205.0,10.11,203.0,13.15,13.76,47.59359,-54.27349
2021-07-06 18:54:01+00:00,202.0,10.05,201.0,11.24,13.76,47.59359,-54.27349
2021-07-06 19:04:01+00:00,206.0,9.66,206.0,10.41,13.76,47.59359,-54.27349
2021-07-06 19:14:01+00:00,205.0,9.12,206.0,10.49,13.92,47.59359,-54.27349
2021-07-06 19:24:01+00:00,206.0,8.18,209.0,8.96,13.92,47.59359,-54.27349
2021-07-06 19:34:01+00:00,207.0,7.25,206.0,8.07,13.92,47.59359,-54.27349
2021-07-06 19:44:01+00:00,203.0,6.89,209.0,7.87,13.92,47.59359,-54.27349
2021-07-06 19:54:01+00:00,195.0,7.4,196.0,8.13,13.92,47.59359,-54.27349
2021-07-06 20:04:01+00:00,189.0,8.92,191.0,9.36,13.92,47.59359,-54.27349
2021-07-06 20:14:01+00:00,197.0,8.12,198.0,8.8,13.76,47.59359,-54.27349
2021-07-06 20:24:01+00:00,194.0,8.6,194.0,9.02,13.76,47.59359,-54.27349
2021-07-06 20:34:01+00:00,194.0,7.41,194.0,9.15,13.76,47.59359,-54.27349
2021-07-06 20:44:01+00:00,193.0,5.76,197.0,6.55,13.76,47.59359,-54.27349
2021-07-06 20:54:01+00:00,264.0,6.14,266.0,7.5,13.76,47.59359,-54.27349
2021-07-06 21:04:01+00:00,267.0,11.29,267.0,12.73,13.76,47.59359,-54.27349
2021-07-06 21:14:01+00:00,273.0,11.22,271.0,12.46,13.76,47.59359,-54.27349
2021-07-06 21:24:01+00:00,273.0,8.97,278.0,10.03,13.76,47.59359,-54.27349
2021-07-06 21:34:01+00:00,265.0,11.99,267.0,13.89,13.76,47.59359,-54.27349
2021-07-06 21:44:01+00:00,269.0,8.87,272.0,10.62,13.76,47.59359,-54.27349
2021-07-06 21:54:01+00:00,269.0,7.68,268.0,8.36,13.76,47.59359,-54.27349
2021-07-06 22:04:01+00:00,265.0,9.81,265.0,10.93,13.76,47.59359,-54.27349
2021-07-06 22:14:01+00:00,272.0,7.48,274.0,10.17,13.6,47.59359,-54.27349
2021-07-06 22:24:01+00:00,255.0,7.16,253.0,8.03,13.6,47.59359,-54.27349
2021-07-06 22:34:01+00:00,265.0,9.28,266.0,11.12,13.6,47.59359,-54.27349
2021-07-06 22:44:01+00:00,266.0,8.57,268.0,9.48,13.6,47.59359,-54.27349
2021-07-06 22:54:01+00:00,255.0,8.18,257.0,9.3,13.6,47.59359,-54.27349
2021-07-06 23:04:01+00:00,254.0,8.55,252.0,9.82,13.6,47.59359,-54.27349
2021-07-06 23:14:01+00:00,268.0,11.74,266.0,13.03,13.29,47.59359,-54.27349
2021-07-06 23:24:01+00:00,234.0,6.59,238.0,7.53,13.29,47.59359,-54.27349
2021-07-06 23:34:01+00:00,232.0,8.01,240.0,10.43,13.29,47.59359,-54.27349
2021-07-06 23:44:01+00:00,217.0,6.11,228.0,8.02,13.29,47.59359,-54.27349
2021-07-06 23:54:01+00:00,230.0,7.66,237.0,9.63,13.29,47.59359,-54.27349
